Probability
0 0 0 0 0 0 0 0 0 0 0 0 0 0 0 0 0 0 0 0 0 0 0 0 0 0 0 0 0 0 0 0 0 0 0 0 0 0 0 0 0 0 0 0
0 0 0 0 0 0 0 0 0 0 0 0 0 0 0 0 0 0 0 0 0 0 0 0 0 0 0 0 0 0 0 0 0 0 0 0 0 0 0 0 0 0 0 0
0 0 0 0 0 0 0 0 0 0 0 0 0 0 0 0 0 0 0 0 0 0 0 0 0 0 0 0 0 0 0 0 0 0 0 0 0 0 0 0 0 0 0 0
0 0 0 0 0 0 0 0 0 0 0 0 0 0 0 0 0 0 0 0 0 0 0 0 0 0 0 0 0 0 0 0 0 0 0 0 0 0 0 0 0 0 0 0
0 0 0 0 0 0 0 0 0 0 0 0 0 0 0 0 0 0 0 0 0 0 0 0 0 0 0 0 0 0 0 0 0 0 0 0 0 0 0 0 0 0 0 0
0 0 0 0 0 0 0 0 0 0 0 0 0 0 0 0 0 0 0 0 0 0 0 0 0 0 0 0 0 0 0 0 0 0 0 0 0 0 0 0 0 0 0 0
0 0 0 0 0 0 0 0 0 0 0 0 0 0 0 0 0 0 0 0 0 0 0 0 0 0 0 0 0 0 0 0 0 0 0 0 0 0 0 0 0 0 0 0
0 0 0 0 0 0 0 0 0 0 0 0 0 0 0 0 0 0 0 0 0 0 0 0 0 0 0 0 0 0 0 0 0 0 0 0 0 0 0 0 0 0 0 0
0 0 0 0 0 0 0 0 0 0 0 0 0 0 0 0 0 0 0 0 0 0 0 0 0 0 0 0 0 0 0 0 0 0 0 0 0 0 0 0 0 0 0 0
0 0 0 0 0 0 0 0 0 0 0 0 0 0 0 0 0 0 0 0 0 0 0 0 0 0 0 0 0 0 0 0 0 0 0 0 0 0 0 0 0 0 0 0
0 0 0 0 0 0 0 0 0 0 0 0 0 0 0 0 0 0 0 0 0 0 0 0 0 0 0 0 0 0 0 0 0 0 0 0 0 0 0 0 0 0 0 0
0 0 0 0 0 0 0 0 0 0 0 0 0 0 0 0 0 0 0 0 0 0 0 0 0 0 0 0 0 0 0 0 0 0 0 0 0 0 0 0 0 0 0 0
0 0 0 0 0 0 0 0 0 0 0 0 0 0 0 0 0 0 0 0 0 0 0 0 0 0 0 0 0 0 0 0 0 0 0 0 0 0 0 0 0 0 0 0
0 0 0 0 0 0 0 0 0 0 0 0 0 0 0 0 0 0 0 0 0 0 0 0 0 0 0 0 0 0 0 0 0 0 0 0 0 0 0 0 0 0 0 0
0 0 0 0 0 0 0 0 0 0 0 0 0 0 0 0 0 0 0 0 0 0 0 0 0 0 0 0 0 0 0 0 0 0 0 0 0 0 0 0 0 0 0 0
0 0 0 0 0 0 0 0 0 0 0 0 0 0 0 0 0 0 0 0 0 0 0 0 0 0 0 0 0 0 0 0 0 0 0 0 0 0 0 0 0 0 0 0
0 0 0 0 0 0 0 0 0 0 0 0 0 0 0 0 0 0 0 0 0 0 0 0 0 0 0 0 0 0 0 0 0 0 0 0 0 0 0 0 0 0 0 0
0 0 0 0 0 0 0 0 0 0 0 0 0 0 0 0 0 0 0 0 0 0 0 0 0 0 0 0 0 0 0 0 0 0 0 0 0 0 0 0 0 0 0 0
0 0 0 0 0 0 0 0 0 0 0 0 0 0 0 0 0 0 0 0 0 0 0 0 0 0 0 0 0 0 0 0 0 0 0 0 0 0 0 0 0 0 0 0
0 0 0 0 0 0 0 0 0 0 0 0 0 0 0 0 0 0 0 0 0 0 0 0 0 0 0 0 0 0 0 0 0 0 0 0 0 0 0 0 0 0 0 0
0 0 0 0 0 0 0 0 0 0 0 0 0 0 0 0 0 0 0 0 0 0 0 0 0 0 0 0 0 0 0 0 0 0 0 0 0 0 0 0 0 0 0 0
0 0 0 0 0 0 0 0 0 0 0 0 0 0 0 0 0 0 0 0 0 0 0 0 0 0 0 0 0 0 0 0 0 0 0 0 0 0 0 0 0 0 0 0
0 0 0 0 0 0 0 0 0 0 0 0 0 0 0 0 0 0 0 0 0 0 0 0 0 0 0 0 0 0 0 0 0 0 0 0 0 0 0 0 0 0 0 0
0 0 0 0 0 0 0 0 0 0 0 0 0 0 0 0 0 0 0 0 0 0 0 0 0 0 0 0 0 0 0 0 0 0 0 0 0 0 0 0 0 0 0 0
0 0 0 0 0 0 0 0 0 0 0 0 0 0 0 0 0 0 0 0 0 0 0 0 0 0 0 0 0 0 0 0 0 0 0 0 0 0 0 0 0 0 0 0
0 0 0 0 0 0 0 0 0 0 0 0 0 0 0 0 0 0 0 0 0 0 0 0 0 0 0 0 0 0 0 0 0 0 0 0 0 0 0 0 0 0 0 0
Height
5668 5669 5671 5673 5674 5676 5677 5678 5679 5682 5683 5683 5684 5686 5688 5689 5690 5691 5692 5693 5694 5695 5696 5696 5697 5698 5699 5699 5700 5701 5701 5702 5702 5702 5703 5703 5704 5704 5704 5705 5706 5706 5707 5708
5659 5661 5665 5665 5665 5666 5667 5668 5670 5672 5673 5673 5674 5676 5678 5679 5680 5682 5682 5683 5684 5685 5686 5686 5687 5688 5688 5689 5690 5691 5691 5692 5692 5692 5692 5692 5692 5693 5693 5694 5695 5696 5696 5697
5650 5654 5655 5655 5656 5657 5658 5660 5662 5662 5663 5663 5663 5665 5668 5669 5670 5671 5672 5673 5674 5674 5675 5676 5677 5678 5678 5679 5680 5680 5681 5681 5681 5681 5681 5681 5682 5682 5683 5683 5684 5685 5685 5686
5641 5644 5645 5645 5647 5648 5649 5651 5652 5652 5652 5652 5653 5653 5658 5659 5660 5661 5662 5662 5663 5664 5665 5666 5667 5667 5668 5669 5669 5670 5670 5670 5670 5670 5670 5670 5671 5671 5672 5672 5672 5673 5674 5675
5633 5635 5636 5636 5638 5639 5640 5642 5641 5642 5641 5642 5643 5642 5647 5648 5649 5651 5651 5651 5652 5653 5654 5655 5656 5657 5657 5658 5658 5658 5659 5659 5659 5659 5659 5659 5659 5660 5660 5660 5661 5662 5663 5664
5625 5626 5626 5628 5629 5630 5631 5632 5632 5631 5631 5631 5635 5634 5636 5638 5640 5641 5641 5642 5642 5643 5643 5644 5645 5646 5646 5647 5647 5647 5648 5648 5648 5648 5648 5648 5648 5648 5649 5649 5650 5651 5652 5653
5617 5618 5618 5619 5620 5621 5622 5622 5622 5621 5620 5622 5626 5624 5627 5629 5630 5631 5632 5632 5632 5632 5633 5634 5634 5635 5635 5636 5636 5636 5636 5636 5636 5636 5636 5637 5637 5637 5638 5638 5639 5640 5641 5642
5609 5610 5611 5611 5611 5612 5613 5614 5614 5614 5613 5615 5615 5615 5619 5620 5621 5621 5621 5621 5621 5622 5623 5623 5624 5624 5624 5624 5624 5624 5624 5625 5625 5625 5625 5625 5626 5626 5627 5627 5628 5629 5629 5630
5601 5602 5603 5603 5604 5604 5604 5605 5607 5606 5605 5605 5605 5607 5609 5609 5610 5611 5611 5611 5611 5612 5612 5612 5612 5612 5612 5612 5613 5613 5613 5613 5613 5614 5614 5614 5614 5615 5615 5616 5617 5617 5618 5619
5593 5594 5595 5595 5595 5596 5596 5597 5597 5596 5595 5595 5597 5598 5599 5600 5601 5601 5601 5601 5601 5601 5601 5600 5600 5600 5600 5600 5600 5600 5601 5601 5602 5602 5602 5602 5603 5603 5603 5604 5605 5605 5606 5606
5585 5586 5587 5586 5587 5587 5588 5588 5588 5588 5587 5587 5587 5591 5590 5590 5591 5591 5591 5590 5590 5590 5589 5589 5589 5588 5588 5588 5588 5588 5589 5589 5590 5590 5590 5590 5591 5591 5592 5592 5593 5593 5593 5594
5578 5577 5578 5579 5579 5579 5579 5579 5579 5580 5579 5579 5579 5583 5580 5580 5580 5580 5580 5579 5579 5579 5578 5578 5577 5577 5577 5577 5576 5576 5577 5577 5578 5578 5578 5579 5579 5579 5580 5580 5581 5581 5582 5582
5570 5570 5569 5570 5572 5571 5570 5570 5570 5570 5569 5569 5569 5572 5571 5570 5570 5569 5569 5568 5568 5568 5567 5567 5566 5566 5565 5565 5565 5565 5565 5566 5566 5566 5566 5567 5567 5568 5568 5569 5569 5569 5570 5570
5561 5561 5562 5562 5561 5561 5561 5561 5561 5560 5559 5560 5560 5561 5561 5560 5559 5559 5558 5557 5556 5556 5556 5556 5555 5555 5554 5553 5553 5553 5553 5554 5554 5554 5555 5555 5555 5556 5556 5557 5557 5557 5558 5558
5553 5553 5553 5552 5552 5552 5551 5552 5552 5551 5551 5551 5552 5551 5550 5549 5548 5548 5547 5546 5546 5545 5545 5544 5544 5543 5543 5542 5541 5541 5541 5542 5542 5543 5543 5543 5544 5544 5544 5545 5545 5545 5546 5546
5545 5544 5544 5544 5544 5543 5542 5543 5542 5542 5541 5541 5541 5541 5540 5538 5538 5537 5536 5535 5535 5534 5534 5533 5533 5532 5531 5531 5530 5530 5530 5530 5530 5531 5531 5531 5532 5532 5532 5533 5533 5534 5534 5534
5536 5536 5535 5535 5534 5533 5533 5534 5533 5532 5531 5531 5530 5532 5529 5528 5527 5527 5526 5525 5525 5524 5524 5523 5522 5521 5520 5519 5519 5518 5518 5518 5519 5519 5519 5520 5520 5520 5520 5521 5521 5522 5522 5522
5528 5527 5525 5525 5525 5524 5527 5524 5523 5522 5521 5520 5520 5520 5519 5518 5517 5516 5516 5515 5514 5514 5513 5512 5511 5510 5509 5508 5507 5507 5507 5507 5507 5507 5507 5507 5508 5508 5509 5509 5510 5510 5510 5510
5520 5519 5517 5516 5515 5514 5516 5514 5513 5512 5512 5511 5510 5509 5508 5508 5507 5506 5505 5504 5504 5503 5502 5501 5500 5499 5497 5497 5496 5495 5495 5495 5495 5495 5496 5496 5496 5497 5497 5498 5498 5498 5498 5498
5512 5511 5510 5507 5506 5505 5507 5505 5503 5503 5502 5501 5500 5499 5499 5498 5497 5497 5496 5494 5493 5492 5491 5490 5489 5488 5487 5486 5485 5485 5484 5484 5484 5484 5484 5484 5484 5485 5485 5486 5486 5486 5486 5486
5505 5503 5502 5500 5497 5497 5497 5495 5494 5495 5494 5492 5490 5489 5489 5487 5487 5486 5485 5483 5482 5481 5480 5479 5478 5477 5476 5475 5474 5474 5473 5473 5473 5472 5472 5473 5473 5473 5473 5474 5474 5474 5474 5474
5496 5495 5494 5492 5490 5492 5489 5487 5486 5485 5483 5482 5480 5479 5478 5477 5476 5475 5474 5472 5471 5470 5469 5468 5467 5466 5465 5464 5463 5463 5462 5462 5462 5462 5461 5461 5461 5462 5462 5462 5462 5462 5463 5463
5489 5488 5486 5485 5485 5483 5480 5478 5477 5475 5474 5473 5471 5470 5469 5468 5466 5465 5463 5462 5461 5459 5458 5457 5456 5455 5454 5453 5453 5452 5452 5451 5451 5451 5451 5451 5451 5450 5450 5451 5451 5451 5451 5451
5482 5480 5478 5477 5476 5474 5472 5470 5468 5467 5465 5464 5462 5461 5459 5458 5457 5455 5453 5452 5450 5449 5448 5447 5446 5445 5444 5443 5442 5441 5441 5441 5440 5440 5440 5440 5440 5440 5439 5439 5439 5440 5439 5439
5474 5472 5470 5469 5468 5466 5465 5462 5460 5458 5456 5455 5453 5451 5450 5449 5447 5445 5444 5442 5441 5439 5438 5437 5435 5435 5433 5432 5431 5431 5430 5430 5430 5430 5429 5429 5429 5429 5428 5428 5428 5428 5427 5427
5466 5465 5463 5462 5460 5459 5457 5454 5452 5450 5448 5446 5444 5443 5441 5439 5437 5436 5434 5432 5430 5429 5428 5427 5425 5424 5423 5422 5421 5420 5420 5419 5419 5419 5419 5418 5418 5418 5417 5417 5417 5416 5416 5415
Wind_Speed
33 34 34 34 34 35 36 38 38 38 38 39 39 38 38 39 38 38 38 39 39 39 39 39 40 40 40 40 40 40 40 39 39 40 40 41 41 42 42 43 42 42 42 41
34 35 33 34 36 36 37 38 39 39 39 41 41 40 39 39 39 39 39 39 39 39 39 40 40 40 41 40 40 40 41 41 41 41 41 41 42 42 42 43 43 43 42 42
35 34 34 35 36 36 37 38 38 39 39 40 41 41 39 39 39 39 39 39 40 40 40 40 40 40 40 40 40 40 41 41 42 42 42 42 43 43 43 42 43 43 43 42
33 33 34 35 36 36 37 37 38 39 40 41 41 42 39 39 40 39 39 40 40 40 41 41 40 40 40 40 40 40 41 42 42 42 42 42 43 43 43 43 43 44 44 43
32 33 34 35 36 36 37 37 38 39 40 41 40 42 40 39 38 38 38 39 40 40 40 40 40 40 40 40 40 41 41 42 42 43 43 43 43 43 43 44 43 44 44 43
31 32 33 34 34 36 36 36 37 39 39 41 39 40 40 38 36 36 37 38 39 39 40 40 40 40 41 41 41 41 42 42 43 43 43 43 43 43 43 43 43 44 44 44
30 31 32 33 33 34 34 35 36 37 39 40 38 39 39 38 37 36 36 37 38 38 38 39 39 40 41 41 41 42 42 42 42 43 43 43 43 43 43 43 44 44 44 44
29 30 30 32 32 33 33 34 36 37 38 38 37 38 38 38 37 37 37 37 37 38 38 40 40 40 41 42 42 42 42 42 42 42 42 42 43 43 43 43 44 44 44 44
28 29 29 30 31 32 33 33 34 36 37 38 39 38 38 38 38 38 38 38 38 38 39 40 40 41 41 42 42 42 42 42 42 42 42 42 42 42 43 43 44 44 45 45
29 29 28 30 31 32 32 33 33 35 37 38 39 38 39 39 38 38 38 38 39 39 39 40 40 41 41 42 42 42 43 43 43 42 42 42 42 43 43 43 44 44 45 45
29 30 29 30 31 32 32 32 33 34 36 37 39 39 39 40 40 39 39 39 39 39 39 39 40 40 40 41 42 42 42 42 42 42 42 42 42 43 43 43 43 44 44 45
29 30 30 31 31 31 33 33 33 34 35 37 38 39 38 39 40 39 39 39 40 39 39 39 39 39 39 40 41 42 42 42 42 42 42 42 42 43 43 44 44 44 44 44
28 29 30 31 33 33 34 33 34 34 36 36 38 40 39 39 39 39 39 39 39 40 39 39 39 39 39 40 41 41 41 42 42 42 41 42 42 43 43 44 44 43 44 44
29 29 30 31 32 33 34 34 34 35 36 37 37 38 38 39 39 39 39 38 39 39 39 40 40 40 40 40 40 41 41 41 41 41 41 42 42 43 43 43 43 43 43 44
30 31 31 31 31 32 33 33 34 35 36 36 36 37 37 36 38 38 38 38 39 39 39 39 40 40 40 40 40 40 41 41 41 41 42 42 42 43 43 43 43 44 44 43
31 32 32 32 32 32 33 33 34 35 36 37 37 36 36 36 36 36 37 37 38 38 38 39 39 39 39 40 40 40 40 41 42 42 42 42 42 42 43 43 44 44 43 43
32 33 34 34 33 34 34 34 35 36 36 37 37 36 37 37 36 35 36 36 37 37 37 38 38 38 39 39 39 39 40 41 41 41 41 42 42 42 42 43 43 44 43 43
31 32 33 33 33 35 34 34 35 36 36 36 36 36 37 38 37 37 37 36 37 37 37 37 38 38 39 39 39 39 40 40 41 41 40 41 41 42 42 42 43 43 43 43
29 30 30 31 32 34 33 33 34 35 34 34 35 35 36 37 38 38 37 37 37 37 38 38 38 38 38 38 38 38 39 39 40 40 41 41 41 42 42 43 43 43 43 44
28 28 30 30 30 31 31 31 32 33 33 33 33 34 35 36 37 37 37 37 38 38 38 38 38 38 37 37 36 37 37 38 39 40 40 40 41 42 42 42 42 43 42 42
27 28 28 28 29 30 30 31 32 32 33 33 33 34 34 35 36 37 37 37 37 38 38 38 38 37 36 36 36 36 37 37 38 39 39 39 39 39 40 40 41 41 41 41
26 27 28 28 28 29 29 31 31 31 32 32 33 33 33 34 34 35 35 36 36 37 37 37 37 37 36 36 36 36 36 36 37 38 38 38 38 38 38 39 40 40 40 40
25 26 27 27 27 27 28 29 30 31 31 31 31 32 32 33 34 35 35 35 36 35 35 36 36 35 35 35 36 36 35 35 36 37 37 37 38 38 38 38 38 38 39 39
26 27 27 28 27 27 28 28 29 30 31 31 32 32 32 32 33 34 35 35 35 34 34 33 33 33 34 34 35 35 35 35 35 35 35 36 37 37 37 37 37 38 38 38
25 26 26 26 26 27 27 29 30 30 31 31 31 31 31 32 33 33 33 33 34 34 34 33 32 32 32 33 33 34 34 35 35 35 36 36 36 36 37 37 37 38 37 38
25 25 25 25 25 26 26 28 28 29 30 30 31 31 32 32 32 32 32 32 32 32 32 32 32 32 32 32 32 33 34 34 35 35 35 35 35 36 36 37 37 38 38 38
Wind_Direction
259 258 257 258 258 259 260 261 261 260 261 262 263 262 262 262 263 263 263 264 264 263 263 262 262 263 263 264 264 264 264 264 266 267 267 267 267 267 267 266 266 266 266 264
260 259 260 258 257 258 259 260 262 262 262 263 264 264 263 263 263 264 264 264 264 263 262 263 264 264 264 264 264 264 264 265 266 267 267 267 267 266 266 266 265 265 265 264
262 262 260 258 258 259 259 259 261 263 263 263 264 264 264 264 265 265 265 265 265 264 263 264 265 265 264 264 264 264 265 265 266 266 268 268 267 267 266 266 265 265 264 264
262 261 260 260 259 259 260 260 261 262 263 264 265 266 264 266 266 266 267 266 265 264 264 264 265 265 265 265 265 265 265 266 267 267 268 268 268 268 267 266 264 263 263 263
264 263 261 261 260 260 261 262 261 262 263 264 265 267 266 268 268 267 267 267 266 265 265 265 265 265 265 265 266 266 266 266 266 267 267 268 268 268 267 265 264 263 263 263
265 264 263 262 260 260 261 262 263 263 264 264 265 267 268 268 270 270 268 268 268 267 266 266 265 265 266 266 266 266 266 266 266 267 267 268 268 268 267 265 264 263 263 263
265 264 264 263 262 260 261 261 263 264 265 266 266 267 268 269 270 271 270 269 268 267 267 267 267 267 267 267 267 267 267 267 267 267 267 267 268 267 266 266 264 263 263 264
269 268 266 264 263 262 262 262 264 266 269 269 268 268 268 269 271 271 271 270 268 268 268 268 268 268 268 267 267 267 267 267 267 267 267 267 266 266 266 266 265 265 264 264
273 272 270 268 265 264 263 263 265 267 269 270 270 270 269 270 271 271 271 271 270 270 270 270 270 269 269 268 267 267 266 266 267 267 267 267 266 265 265 266 266 266 265 264
274 273 271 270 267 265 266 267 267 266 268 270 272 272 272 272 273 273 273 273 272 272 272 272 271 271 270 268 267 267 266 266 266 267 266 266 266 265 265 265 265 266 265 264
274 273 272 270 269 268 267 266 266 268 268 269 271 273 273 274 275 275 274 273 273 273 273 273 272 272 271 269 267 267 266 266 266 266 266 266 265 265 265 265 266 266 266 265
276 275 273 271 270 269 268 267 266 267 268 268 270 272 273 274 274 275 274 274 273 273 272 272 272 272 271 270 268 267 266 266 266 266 266 265 264 265 265 265 266 266 266 265
275 275 274 273 271 270 269 268 267 267 268 269 270 271 273 275 275 275 274 274 274 273 272 272 272 272 271 270 269 267 267 266 266 266 266 265 264 264 264 265 266 266 266 266
273 273 274 275 275 274 273 271 269 268 269 270 271 273 273 274 274 274 273 273 273 272 272 271 272 272 272 271 269 268 267 266 265 265 265 265 265 265 265 266 266 266 266 266
273 273 274 274 274 272 272 272 271 270 271 272 274 274 274 273 273 273 273 274 273 273 273 273 273 273 273 271 270 268 266 265 265 265 265 264 264 265 265 265 265 265 266 267
275 275 274 273 274 275 273 273 272 272 272 273 273 273 273 272 272 272 273 274 274 273 274 274 273 274 274 273 271 269 267 265 265 265 265 265 264 264 265 265 265 265 266 267
278 277 276 275 276 277 276 275 275 274 274 274 272 273 273 272 272 273 273 273 272 273 274 275 274 274 274 273 272 270 268 267 265 265 265 265 264 264 265 265 265 266 266 267
279 280 279 280 279 278 279 278 277 277 277 276 274 271 271 272 271 271 272 272 272 272 273 274 274 274 274 273 272 271 269 267 266 265 264 265 265 264 265 265 266 266 266 267
280 281 282 283 283 281 280 279 279 278 277 276 275 273 272 272 272 271 272 272 272 273 273 274 275 276 275 272 272 270 269 268 266 266 265 265 265 265 265 265 265 266 267 268
281 282 284 284 286 286 284 283 282 280 278 277 276 275 274 274 273 273 273 274 274 274 275 276 276 276 274 272 270 269 268 268 268 267 267 267 266 267 267 267 266 267 267 269
285 286 286 284 285 285 285 284 283 281 281 280 279 278 276 276 276 274 274 275 276 276 277 277 277 275 274 272 271 270 270 269 269 268 268 268 267 267 267 268 267 268 268 269
287 288 288 286 285 285 285 284 283 284 283 282 281 280 278 278 277 277 277 277 278 278 277 277 277 275 273 272 272 272 271 270 269 269 268 268 269 269 268 268 268 269 269 270
287 289 288 288 287 287 286 284 283 283 283 283 282 281 280 280 280 278 278 278 278 279 279 278 277 276 274 273 272 271 271 270 270 269 268 269 270 269 269 270 269 270 271 272
288 288 287 288 287 285 286 286 286 284 283 283 283 283 284 283 283 282 280 280 280 279 279 279 277 275 274 273 272 271 271 270 270 270 270 269 270 270 270 270 271 272 272 273
289 288 287 287 288 288 289 288 287 286 285 283 283 284 284 285 285 284 283 281 281 281 280 278 277 276 275 274 272 271 271 271 271 271 271 271 271 271 271 272 272 273 273 274
289 289 288 287 288 289 290 290 289 287 285 284 284 284 285 285 286 285 283 283 282 281 280 279 278 277 276 275 273 271 271 271 270 270 270 271 271 272 272 273 273 274 275 275